Погода в Яреськах

Украина / Полтавская область     49°50′09″N   33°54′29″E
темп.,
°C
ветер,
м/с
пор.,
м/с
влажн.,
%
обл.,
%
осадки,
мм/ч
давл.,
гПа
погр.,
м
25 мая, ср
ср2500:00+9сз338350 0.0 101524
03:00+8зсз338531 0.0 101633
06:00+9зсз34845 0.0 101686
09:00+16сз34624 0.0 1017519
12:00+19сз454596 0.0 10172401
15:00+18сз2453100 0.0 10171475
18:00+19з2352100 0.0 10171190
21:00+14ююз346190 0.0 101845
26 мая, чт
чт2600:00+12ю357038 0.0 101762
03:00+11ю4970100 0.0 1017151
06:00+13ю31068100 0.0 1015276
09:00+14ююз71566100 0.0 1014682
12:00+12ююз81690100 2.4 1013770
15:00+13зюз599447 7.2 1013569
18:00+18зсз510700 0.8 10121522
21:00+13з48845 0.9 1013129
27 мая, пт
пт2700:00+12зюз514875 0.0 1013310
03:00+11зюз615885 0.0 1013402
06:00+12з615855 0.0 1013560
09:00+16зсз914620 0.0 10141322
12:00+18зсз8125227 0.0 10151879
15:00+17з4106463 0.0 10141175
18:00+18зюз5967100 0.2 1013616
21:00+14ююз410815 0.2 1012171
28 мая, сб
сб2800:00+15ююз5147472 0.0 1010361
03:00+16ююз81874100 0.1 1008574
06:00+15сз5884100 0.1 1009444
09:00+13зсз578077 0.1 1011718
12:00+16з466237 0.0 10121159
15:00+19з6849100 0.0 10121608
18:00+17зюз2463100 0.0 1012230
21:00+14ююз3574100 0.1 1013112
29 мая, вс
вс2900:00+11юз3597100 3.1 1014173
03:00+11ююз2497100 5.4 1015157
06:00+11юз2395100 0.0 101597
09:00+15з227843 0.1 1016717
12:00+19з115599 0.2 10161631
15:00+18ю2255100 0.3 10161235
18:00+18ююв225919 0.1 10161019
21:00+14ююв34856 0.3 101856